COSMOS 2251 DEB, 40233

Orbit data source: Space-Track

COSMOS 2251 DEB, 40233 is space debris in LEO originally from a launch on Wed, 16 Jun 1993 UTC launched from the Plesetsk Missile And Space Complex (PKMTR). The debris from Iridium 33, an American commercial communications satellite, has been tracked extensively since its accidental collision with the defunct Russian satellite Cosmos 2251 in 2009. This event, occurring at high speed in low Earth orbit (LEO), generated thousands of pieces of space debris, significantly increasing the risk of further collisions. The Iridium 33 debris cloud has impacted space traffic management and orbital debris mitigation strategies, making it a subject of ongoing study in space situational awareness.

Loading next visibility...
Identifier
40233, 1993-036BVN
Orbit
LEO
Last TLE update
4 days ago
Origin
Manufacturer
Unknown
Mission
Spacecraft
Bus & Motor
Unknown
Mass
Unknown
Launch date (UTC)
1993-06-16 (32 years ago)
Launch vehicle
Unknown
Launch site
Plesetsk Missile And Space Complex (PKMTR)
Object type
Payload
Rocket body
Debris
Shape & HBR
Unknown
Radar Cross Section
Small (<0.1 m²)

Expand to show TLE details & history

TLE from 4 days ago
0 COSMOS 2251 DEB
1 40233U 93036BVN 25179.09189328  .00002376  00000-0  53309-3 0  9998
2 40233  73.9410  63.4664 0050299 175.4737 184.6892 14.56378989566955
Epoch: 2025-06-28T02:12Z
TLE epoch observation values (Epoch: 2025-06-28T02:12:19.579Z)
Latitude
-0.00003°
Longitude
113.94944°
Altitude
743.035 km
Speed
7.465 km/s
True Right ascension
04h 13m 51s
True Declination
0° 00' 00"
Sunlit
Object was in daylight at epoch
Visualization orbit readout
Latitude
73.0178°
Longitude
-143.58769°
Altitude
705.137 km
Speed
7.516 km/s
Apparent Right ascension
06h 45m 14s
Apparent Declination
26° 20' 34"
Sunlit
Object is in daylight
Visualization observer readout
Local Sidereal Time
17:15:15
Azimuth
338.526° N
Elevation
-20.506°
Doppler factor
1
Orbital elements
Apogee altitude
738.115 km
Perigee altitude
666.885 km
Semi-major axis
7,080.637 km
Eccentricity
0.00503
Inclination
73.941°
RAAN
63.4664°
Arg. of periapsis
175.4737°
True anomaly
Unknown
Mean anomaly
184.6892°
Eccentric anomaly
Unknown
Mean motion
3.64279 °/min
Orbital period
98.83 mins
BSTAR
0.00053309
Loading maneuver chart data...
Loading SW <> Apogee altitude chart data...

COSMOS 2251 DEB Visibility forecast

Observer location: undefined°, undefined°

Span
Click to sort rows by Start time (UTC) header in descending order
Start Az.
Max El. time (UTC)
Max El. Az.
Max El.
End time (UTC)
End Az.
9 mins2025-07-02 16:46:39.855Z197.848° SSW2025-07-02 16:51:39.855Z15.919° NNE43.996°2025-07-02 16:55:39.855Z18.845° NNE
4 mins2025-07-03 01:28:39.855Z35.199° NE2025-07-03 01:30:39.855Z63.255° ENE13.962°2025-07-03 01:32:39.855Z88.92° E
7 mins2025-07-03 03:08:39.855Z326.805° NNW2025-07-03 03:11:39.855Z232.883° WSW40.583°2025-07-03 03:15:39.855Z175.658° S
|